Regional Weather Roundup
Issued by NWS

Home | Current Version | Previous Version | Text Only | Print | Product List | Glossary On
Versions: 1 2 3 4 5 6 7 8 9 10 11 12 13 14 15 16 17 18 19 20 21 22 23 24 25 26 27 28 29 30 31 32 33 34 35 36 37 38 39 40 41 42 43 44 45 46 47 48 49 50
000
ASHW40 PHFO 250043
RWRHI

WEATHER ROUNDUP FOR HAWAII
NATIONAL WEATHER SERVICE HONOLULU HI
200 PM HST FRI MAR 24 2017

THIS IS AN AUTOMATED REPORT THAT HAS NOT BEEN QUALITY CONTROLLED.

NOTE..."FAIR" INDICATES FEW OR NO CLOUDS BELOW 12,000 FEET WITH NO
SIGNIFICANT WEATHER AND/OR OBSTRUCTIONS TO VISIBILITY.

* - THESE SITES REPORT LIMITED FIELDS

HIZ001>004-250100-
KAUAI-NIIHAU-

CITY           SKY/WX    TMP DP  RH WIND       PRES   REMARKS
LIHUE APT      MOSUNNY   79  72  79 E12       30.16F
PORT ALLEN*      N/A     81 N/A N/A SE13G20     N/A
POIPU*           N/A     81 N/A N/A E8G16       N/A
PRINCEVILLE*     N/A     81 N/A N/A E9G18       N/A
KOKOLE POINT*  NOT AVBL
MOLOAA DAIRY*    N/A     81  70  69 E8G14       N/A
WAIMEA HTS*      N/A     86  66  51 S9G15       N/A
PUU OPAE*      NOT AVBL
PUU LUA*       NOT AVBL
MAKAHA RIDGE*    N/A     84  61  45 N2G9        N/A
$$

HIZ005>011-250100-
OAHU-

CITY           SKY/WX    TMP DP  RH WIND       PRES   REMARKS
HONOLULU       MOSUNNY   84  69  60 SE15      30.11F
KALAELOA       SUNNY     85  71  63 SE9G16    30.13F HX  90
KANEOHE MCB    CLOUDY    81  71  71 E10G21    30.11
WHEELER FIELD  LGT RAIN  77  72  83 E8        30.13
BELLOWS*         N/A    N/A N/A N/A E17         N/A
KAHUKU*          N/A    N/A N/A N/A E8G17       N/A
WHEELER*         N/A    N/A N/A N/A NE9         N/A
WAIANAE HARBOR   N/A    N/A N/A N/A W12         N/A
DILLINGHAM*      N/A     77  73  88 NE1         N/A
KAHUKU TRN*      N/A     84  75  74 W9G20       N/A  HX  92
KAWAILOA*        N/A     77  70  78 E8G15       N/A
KII*             N/A     79  70  73 E12G20      N/A
MAKUA RANGE*     N/A     66  61  82 W5G10       N/A
OAHU FOREST NW   N/A     72  66  83 CALM        N/A
SCHOFIELD BRK*   N/A     79  72  78 MISG        N/A
SCHOFIELD S*   NOT AVBL
WAIANAE VLY*     N/A     82  72  69 E3          N/A
KUAOKALA*        N/A     73   3   6 N3G10       N/A
HONOULIUULI*   NOT AVBL
MOKUOLOE IS*   NOT AVBL
PALEHUA*         N/A     70  68  94 SE1G10      N/A
WAIAWA PHB*    NOT AVBL
$$

HIZ012>013-250100-
MOLOKAI-

CITY           SKY/WX    TMP DP  RH WIND       PRES   REMARKS
MOLOKAI AIRPT  MOSUNNY   84  67  56 SE13G18   30.13F
KALAUPAPA      NOT AVBL
MAKAPULAPAI*     N/A     82  70  65 E18G26      N/A
MOLOKAI 1*     NOT AVBL
PUU ALII*        N/A     66  63  91 E3G10       N/A
$$

HIZ016-250100-
KAHOOLAWE-

CITY           SKY/WX    TMP DP  RH WIND       PRES   REMARKS
KAHOOLAWE*     NOT AVBL
HAKIOAWA*        N/A     77  68  72 MISG      30.51F
HONOKANAIA*      N/A     84  71  63 E15G26    30.08F
KANELOA*         N/A     77  68  73 E20G31    30.21F
KEALIALALO*    NOT AVBL
LUA MAKIKA*    NOT AVBL
$$

HIZ014>015-250100-
LANAI-

CITY           SKY/WX    TMP DP  RH WIND       PRES   REMARKS
LANAI CITY     CLOUDY    77  70  78 S10       30.17S
LANAI 1*       NOT AVBL
$$

HIZ017>028-250100-
MAUI-

CITY           SKY/WX    TMP DP  RH WIND       PRES   REMARKS
KAHULUI        MOSUNNY   85  69  58 NE16G24   30.10F
KAPALUA-W MAUI NOT AVBL
HANA AIRPORT   CLOUDY    77  68  73 SE8       30.16F
HANA*            N/A     79 N/A N/A E9G15       N/A
HALEAKALA SUMM   N/A     52  19  28 SE23        N/A
MAALAEA BAY*     N/A     86 N/A N/A N14G22      N/A
HALEAKALA*     NOT AVBL
KAUPO GAP*       N/A     86  75  70 W3G14       N/A  HX  95
KULA 1*          N/A     67  57  70 W9          N/A
$$

HIZ023>026-250100-
BIG ISLAND OF HAWAII COAST AND LOWER SLOPES-

CITY           SKY/WX    TMP DP  RH WIND       PRES   REMARKS
KAILUA KONA    MOSUNNY   84  68  58 SW12      30.08F
HILO           PTSUNNY   78  69  73 E12       30.14F
HONOKAA*         N/A     70 N/A N/A VRB1        N/A
KAWAIHAE MWT*    N/A     86 N/A N/A W6          N/A
KAWAIHAE*        N/A     81 N/A N/A W5        30.08F
SOUTH POINT*     N/A     73 N/A N/A VRB16G25    N/A
UPOLU AIRPORT* NOT AVBL
KAMUELA*       MOCLDY    75  64  69 NE13      30.20F
HAKALAU*         N/A     69  41  36 S6G16       N/A
KALOKO-HONOKO*   N/A     84  70  61 SW7       30.08
PALI 2*          N/A     72  68  88 NW15G22     N/A
KEALAKOMO*       N/A     82  70  65 E18         N/A
KAUPULEHU*       N/A     84  64  51 SW9G15      N/A
KAPAPALA*        N/A     70  69  96 E3G9        N/A
LOWER KAHUKU*    N/A     66  64  94 NE3G12      N/A
PUHE CS*         N/A     84  66  54 W3          N/A
PUHO CS*         N/A     85  69  57 W5G12       N/A
PTA KEAMUKU*     N/A    N/A N/A N/A CALM        N/A
WAIKOLOA*        N/A     86  64  48 W6G18       N/A
$$

HIZ027>028-250100-
BIG ISLAND OF HAWAII INTERIOR AND SUMMMITS-

CITY           SKY/WX    TMP DP  RH WIND       PRES   REMARKS
BRADSHAW FIELD MOSUNNY   72  23  16 S21G28    30.41F
MK VISITOR CEN   N/A     54  25  32 SE14        N/A
MAUNA KEA*       N/A     45  27  49 W2          N/A
MAUNA LOA*       N/A     54  34  47 MISG        N/A
MAUNA LOA 1*   NOT AVBL
PTA KIPUKA*      N/A     72  55  56 N5G14       N/A
PTA RANGE 17*    N/A     55  34  44 SE10G28     N/A
PTA WEST*        N/A     75  63  64 NW12G17     N/A
NENE CABIN*      N/A     63  50  63 E9G18       N/A
AHUMOA*          N/A     62  56  82 NW7         N/A
PTA PORTABLE*  NOT AVBL
PUU MALI*        N/A     64  57  77 N8G14       N/A
$$

HIC003-250100-
NORTHWEST ISLANDS-

CITY           SKY/WX    TMP DP  RH WIND       PRES   REMARKS
MIDWAY ISLAND  CLOUDY    72  61  68 W9        30.11S
MIDWAY NOS*      N/A     75 N/A N/A MISG      30.09S
FRENCH FRIGATE NOT AVBL
$$

PHZ110>124-180-250100-
BUOY REPORTS

STATION/POSITION TIME  TEMP    WIND        PRES    WAVE   SWELL
                       AIR SEA DIR/SP/G            HT/PER HT/DIR
                 (UTC) (F)     (DEG/KT/KT) (MB)    (FT/S) (FT/D)
BUOY 51001       0030   76 76  180/  6/ 10 1020.8F
BUOY 51101       2350   76 78  180/  4/  6 1021.7F   5/11   5/300
BUOY 51100       NOT AVBL
BUOY 51002       0030   78 79   80/ 14/ 16 1018.0F
BUOY 51003       2350   78 79   70/ 12/ 14 1019.2F   5/ 9   5/110
BUOY 51004       2350      78   60/ 17/ 19 1018.9F   7/ 8   5/140
BARBERS PT BUOY  NOT AVBL
WAIMEA BAY BUOY  0002      76                N/A     4/12   3/310
KAILUA BAY BUOY  0004      77                N/A     6/13   3/350
LANAI BUOY       0015      79                N/A     4/13   2/260
BARBERS PT 2     NOT AVBL
PAUWELA MAUI     0009      77                N/A     6/13   3/330
HILO             0012      78                N/A     7/ 8   3/340
KANEOHE BAY BUOY 0025      76                N/A     5/13   2/340
HANALEI KAUAI    0022      78                N/A     5/13   3/320
KAHULUI HARBOR   0012   78 78   50/ 17/ 20 1019.1
HONOLULU HARBOR  0012   82 78   70/  4/ 13 1020.5
KILO NALU        NOT AVBL
HILO HARBOR      0012   81 76   90/  7/ 14 1020.3
MOKUOLOE         2336   79 79  110/ 12/ 19 1020.4F
NAWILIWILI       0018   76      60/  8/ 12 1020.6
WHOTS BUOY       NOT AVBL
BUOY 51028       NOT AVBL
$$

......................KEY........................................
  SKY/WX - SKY CONDITIONS/PRESENT WEATHER
  TMP    - TEMPERATURE IN FAHRENHEIT
  DWPT   - DEWPOINT IN FAHRENHEIT
  RH     - RELATIVE HUMIDITY IN PERCENT
  WIND   - DIRECTION AND SPEED /MPH FOR ISLANDS...KTS FOR BUOYS/
  PRES   - MEAN SEA LEVEL PRESSURE IN INCHES OF HG
  VSB    - VISIBILITY IN MILES
  HX     - HEAT INDEX
  WCI    - WIND CHILL INDEX
  VRB    - VARIABLE WIND DIRECTION
  N/A    - NOT AVAILABLE




USA.gov is the U.S. government's official web portal to all federal, state and local government web resources and services.